Location: Unspecified
(47.4992°N, 121.7766°W)
Time: 16:57:44
(UTC-07:00)

ISS - Pass Details

Date: 23 April 2024
Orbit: 410 x 414 km, 51.6° (Epoch: 18 May)

Event Time Altitude Azimuth Distance (km) Brightness Sun altitude
Exits shadow 04:57:51 13° 206° (SSW) 1,313 -1.8 -10.6°
Maximum altitude 05:00:25 33° 144° (SE) 717 -2.5 -10.3°
Drops below altitude 10° 05:03:26 10° 78° (ENE) 1,477 0.3 -9.8°
Sets 05:05:38 0° 69° (ENE) 2,341 2.1 -9.5°
